TimeCST,TemperatureF,Dew PointF,Humidity,Sea Level PressureIn,VisibilityMPH,Wind Direction,Wind SpeedMPH,Gust SpeedMPH,PrecipitationIn,Events,Conditions,WindDirDegrees,DateUTC
12:56 AM,35.1,24.1,64,29.96,10.0,SSE,16.1,-,N/A,,Overcast,150,2012-02-20 06:56:00
1:56 AM,35.1,25.0,67,29.94,10.0,SSE,15.0,-,N/A,,Overcast,150,2012-02-20 07:56:00
2:56 AM,35.1,25.0,67,29.92,10.0,SSE,12.7,20.7,N/A,,Overcast,160,2012-02-20 08:56:00
3:56 AM,35.1,25.0,67,29.91,10.0,SSE,16.1,-,N/A,,Overcast,150,2012-02-20 09:56:00
4:56 AM,35.1,25.0,67,29.89,10.0,SSE,16.1,-,N/A,,Overcast,150,2012-02-20 10:56:00
5:56 AM,35.1,23.0,61,29.86,10.0,SSE,15.0,26.5,N/A,,Overcast,150,2012-02-20 11:56:00
6:39 AM,35.6,24.8,65,29.81,10.0,SE,18.4,26.5,0.00,Rain,Light Rain,140,2012-02-20 12:39:00
6:56 AM,35.1,23.0,61,29.85,10.0,SE,19.6,27.6,0.00,,Overcast,140,2012-02-20 12:56:00
7:39 AM,35.6,23.0,60,29.79,10.0,SE,17.3,29.9,N/A,,Overcast,140,2012-02-20 13:39:00
7:56 AM,35.6,23.0,60,29.78,10.0,SE,16.1,24.2,N/A,,Overcast,140,2012-02-20 13:56:00
8:52 AM,35.6,23.0,60,29.78,10.0,SE,16.1,26.5,0.00,Rain,Light Ice Pellets,140,2012-02-20 14:52:00
8:56 AM,35.1,24.1,64,29.82,9.0,SSE,18.4,26.5,0.00,Rain,Light Ice Pellets,150,2012-02-20 14:56:00
9:01 AM,33.8,24.8,70,29.77,8.0,SSE,20.7,27.6,0.00,Rain,Light Rain,150,2012-02-20 15:01:00
9:15 AM,33.8,24.8,70,29.77,10.0,SSE,20.7,28.8,0.00,Rain,Light Ice Pellets,150,2012-02-20 15:15:00
9:33 AM,33.8,26.6,75,29.77,4.0,SE,17.3,27.6,0.02,Rain-Snow,Ice Pellets,140,2012-02-20 15:33:00
9:46 AM,33.8,26.6,75,29.76,5.0,SE,18.4,26.5,0.04,Rain,Light Rain,140,2012-02-20 15:46:00
9:53 AM,33.8,28.4,81,29.76,4.0,SE,19.6,25.3,0.05,Rain,Ice Pellets,140,2012-02-20 15:53:00
9:56 AM,33.8,28.4,81,29.75,4.0,SE,18.4,27.6,N/A,Rain,Light Rain,140,2012-02-20 15:56:00
10:01 AM,33.8,28.4,81,29.75,5.0,SE,16.1,27.6,0.00,Rain,Light Rain,140,2012-02-20 16:01:00
10:27 AM,33.8,28.4,81,29.74,4.0,SE,18.4,25.3,0.02,Rain,Light Rain,130,2012-02-20 16:27:00
10:34 AM,33.8,28.4,81,29.73,7.0,SE,19.6,28.8,0.02,Rain,Light Freezing Rain,130,2012-02-20 16:34:00
10:47 AM,33.8,28.4,81,29.73,9.0,SE,13.8,25.3,0.03,,Overcast,140,2012-02-20 16:47:00
10:56 AM,33.1,30.0,89,29.77,5.0,SE,15.0,24.2,0.04,Rain,Light Rain,140,2012-02-20 16:56:00
11:16 AM,33.8,30.2,87,29.72,4.0,SSE,15.0,21.9,0.01,Snow,Light Snow,150,2012-02-20 17:16:00
11:25 AM,33.8,30.2,87,29.72,1.8,SE,15.0,26.5,0.01,Snow,Light Snow,140,2012-02-20 17:25:00
11:29 AM,33.8,30.2,87,29.72,0.5,SSE,19.6,25.3,0.02,Snow,Snow,150,2012-02-20 17:29:00
11:39 AM,33.8,30.2,87,29.72,1.0,SE,20.7,26.5,0.03,Snow,Light Snow,140,2012-02-20 17:39:00
11:47 AM,33.8,30.2,87,29.71,0.8,SSE,15.0,25.3,0.04,Snow,Light Snow,150,2012-02-20 17:47:00
11:56 AM,33.1,30.9,92,29.75,1.8,SSE,15.0,23.0,0.05,Snow,Light Snow,150,2012-02-20 17:56:00
12:09 PM,33.8,30.2,87,29.70,2.0,SSE,17.3,26.5,0.01,Snow,Light Snow,150,2012-02-20 18:09:00
12:23 PM,33.8,30.2,87,29.69,1.5,SSE,17.3,25.3,0.03,Snow,Light Snow,150,2012-02-20 18:23:00
12:35 PM,33.8,32.0,93,29.69,3.0,SSE,19.6,26.5,0.04,Snow,Light Snow,160,2012-02-20 18:35:00
12:51 PM,33.8,32.0,93,29.68,2.5,SSE,18.4,24.2,0.04,Rain-Snow,Light Rain,150,2012-02-20 18:51:00
12:56 PM,34.0,32.0,92,29.72,2.5,SSE,16.1,-,0.04,Rain-Snow,Light Rain,160,2012-02-20 18:56:00
1:22 PM,33.8,32.0,93,29.67,1.5,SSE,19.6,26.5,0.01,Rain,Light Rain,150,2012-02-20 19:22:00
1:56 PM,34.0,32.0,92,29.69,1.0,SSE,17.3,23.0,0.04,Rain,Light Rain,160,2012-02-20 19:56:00
2:01 PM,33.8,32.0,93,29.64,2.0,SSE,15.0,21.9,N/A,Rain-Snow,Light Rain,160,2012-02-20 20:01:00
2:56 PM,35.1,33.1,92,29.66,2.0,SSE,13.8,-,0.02,Rain,Light Rain,160,2012-02-20 20:56:00
3:56 PM,36.0,34.0,93,29.64,2.0,SSE,15.0,-,0.01,,Light Drizzle,160,2012-02-20 21:56:00
4:56 PM,36.0,35.1,97,29.63,2.5,SSE,16.1,-,0.00,Rain,Light Rain,160,2012-02-20 22:56:00
5:56 PM,35.1,33.1,92,29.65,2.0,West,8.1,-,0.09,Rain,Rain,280,2012-02-20 23:56:00
6:26 PM,33.8,32.0,93,29.61,2.0,SSW,3.5,-,0.07,Rain,Rain,200,2012-02-21 00:26:00
6:41 PM,33.8,33.8,100,29.61,2.0,Calm,Calm,-,0.10,Rain,Rain,0,2012-02-21 00:41:00
6:56 PM,33.1,32.0,96,29.65,2.0,Calm,Calm,-,0.11,Rain,Rain,0,2012-02-21 00:56:00
7:16 PM,33.8,33.8,100,29.61,3.0,Calm,Calm,-,0.01,Rain,Light Rain,0,2012-02-21 01:16:00
7:26 PM,33.8,33.8,100,29.60,3.0,SSW,3.5,-,0.01,Rain,Light Rain,200,2012-02-21 01:26:00
7:45 PM,35.6,33.8,93,29.60,4.0,SSW,4.6,-,0.01,Rain,Light Rain,210,2012-02-21 01:45:00
7:56 PM,35.1,34.0,96,29.64,4.0,SSW,5.8,-,0.01,Rain,Light Rain,210,2012-02-21 01:56:00
8:05 PM,35.6,33.8,93,29.60,6.0,West,3.5,-,0.00,Rain,Light Rain,260,2012-02-21 02:05:00
8:20 PM,35.6,33.8,93,29.60,2.0,West,3.5,-,N/A,,Light Drizzle,260,2012-02-21 02:20:00
8:56 PM,34.0,32.0,92,29.64,4.0,West,6.9,-,0.00,Rain,Light Rain,280,2012-02-21 02:56:00
9:12 PM,33.8,32.0,93,29.61,4.0,WNW,6.9,-,0.00,Snow,Light Snow,290,2012-02-21 03:12:00
9:56 PM,33.1,30.9,92,29.65,10.0,WNW,12.7,-,0.00,,Overcast,300,2012-02-21 03:56:00
10:56 PM,33.1,30.9,92,29.66,3.0,NW,15.0,-,0.00,Rain-Snow,Light Rain,310,2012-02-21 04:56:00
11:25 PM,33.8,30.2,87,29.62,4.0,NW,15.0,-,0.00,Snow,Light Snow,310,2012-02-21 05:25:00
11:56 PM,33.1,30.9,92,29.67,10.0,NW,10.4,-,0.00,,Overcast,310,2012-02-21 05:56:00